Temp
11 8 8 8 8 8 8 9 9 11 12 11 11 11 12 10 11 10 10 10 9 9 10 10 11 11 12 11 11 11 11 11 10 10 10 10 10 10 11 11 11 11 11 12
8 9 10 10 11 10 10 9 8 10 11 11 11 11 12 9 10 12 12 12 11 11 10 10 10 10 10 11 11 11 11 11 11 11 10 11 11 11 11 11 11 11 11 12
9 11 10 10 10 9 9 10 9 9 9 11 10 10 11 10 11 11 12 13 12 12 11 10 11 11 11 9 10 11 11 11 11 10 10 10 10 10 10 11 11 12 12 12
9 11 10 9 10 9 8 10 9 9 8 8 9 9 11 10 11 10 11 11 12 11 10 10 10 11 11 11 10 10 11 11 11 11 10 11 12 12 12 12 12 11 12 12
11 10 9 9 10 9 9 9 8 9 9 8 9 7 10 10 11 12 11 11 11 12 12 10 10 10 10 11 11 11 11 11 11 11 12 12 12 12 12 12 12 11 11 11
9 11 10 10 9 10 9 8 8 7 6 7 8 7 9 10 13 13 11 12 13 11 11 11 10 10 11 12 12 10 10 10 10 11 12 13 12 12 11 11 11 11 11 11
7 10 10 10 9 9 7 5 5 6 6 7 7 6 9 10 10 11 11 12 13 12 12 11 11 12 11 11 12 12 9 11 10 10 11 11 12 12 12 11 11 11 11 11
6 7 10 10 10 9 8 7 5 8 7 6 7 10 10 10 10 11 12 12 13 13 12 12 11 12 12 12 11 11 12 10 10 10 10 10 11 11 11 11 11 11 12 12
7 8 9 10 10 9 9 7 8 7 7 6 6 9 10 11 11 11 12 13 13 14 14 14 13 12 11 11 11 11 11 11 11 11 11 10 11 10 10 10 10 10 11 11
9 7 9 9 10 10 10 8 7 5 8 8 6 6 6 10 11 11 11 12 12 13 13 13 13 13 12 11 11 11 11 11 11 11 11 11 10 10 10 10 9 10 11 10
9 7 7 8 9 8 8 8 7 6 6 7 5 6 7 9 10 11 10 12 13 13 13 13 13 13 12 12 11 11 10 10 10 11 11 11 10 10 10 10 9 9 9 9
9 6 5 8 7 8 9 9 7 6 7 5 5 5 9 8 10 12 11 12 12 12 12 13 12 12 12 12 11 11 10 10 9 9 10 11 10 10 9 9 9 9 8 8
9 6 5 7 8 8 9 9 9 6 4 5 5 6 8 7 9 11 10 10 12 12 12 12 12 12 11 11 10 10 9 9 9 9 9 9 9 10 10 9 9 9 7 6
9 5 6 5 7 7 6 7 8 7 4 5 6 7 9 9 8 9 9 10 11 11 11 11 11 11 10 10 10 9 9 8 8 8 8 8 8 9 9 9 9 9 8 7
6 5 5 5 5 6 6 6 6 3 5 5 7 6 8 8 8 9 9 10 10 11 11 11 11 11 11 11 10 9 9 8 8 7 7 7 8 8 8 8 8 8 8 6
5 5 6 5 5 5 6 6 5 5 5 4 6 6 6 7 8 9 10 10 10 11 11 11 11 11 11 11 10 10 10 10 9 8 6 6 6 7 7 7 7 7 7 6
5 4 4 5 6 6 6 8 8 6 5 6 5 6 4 4 6 6 5 7 9 10 9 9 9 9 10 10 10 10 10 10 10 9 7 6 6 6 6 6 6 6 5 5
4 4 4 3 5 4 7 7 7 3 2 2 3 2 2 2 4 5 5 4 5 6 6 7 8 8 9 9 9 9 9 9 9 8 7 6 6 6 5 5 5 5 5 4
5 4 4 5 3 5 9 5 5 6 0 0 1 1 1 1 4 6 5 3 2 4 5 6 7 7 8 8 9 9 8 8 8 8 6 6 5 5 4 4 4 4 4 3
3 4 4 3 4 5 2 2 3 3 2 -2 -1 -1 -1 -1 -0 2 1 2 4 3 4 5 6 6 6 7 7 7 8 7 8 7 6 5 4 3 3 3 3 3 2 2
3 2 3 4 5 4 -1 0 3 4 0 -3 -3 -3 -2 -2 -2 -2 -2 -1 0 1 2 3 3 4 6 6 6 6 6 6 7 6 5 5 4 3 2 2 2 2 1 1
5 3 3 2 2 2 -3 -0 1 -4 -5 -4 -4 -5 -5 -5 -4 -4 -4 -4 -3 -2 -1 0 0 2 3 4 5 4 5 6 6 5 4 4 4 2 2 1 1 1 0 0
2 -1 0 0 -0 -4 -5 -5 -6 -6 -6 -6 -6 -6 -7 -7 -6 -7 -7 -6 -6 -5 -4 -3 -2 -0 2 2 2 2 4 5 5 5 4 3 3 2 1 1 -0 -0 -0 -0
-4 -5 -2 -2 -5 -5 -6 -6 -7 -8 -8 -8 -8 -8 -8 -8 -8 -8 -8 -8 -7 -7 -6 -6 -5 -4 -3 1 2 2 3 4 4 4 3 3 2 1 0 -1 -1 -2 -1 -1
-7 -6 -6 -4 -6 -5 -4 -7 -8 -8 -8 -9 -9 -9 -9 -9 -9 -9 -9 -9 -8 -7 -6 -6 -6 -5 -3 -2 -1 1 2 3 3 3 2 2 1 0 -0 -1 -2 -2 -2 -2
-8 -8 -8 -8 -8 -8 -8 -8 -8 -8 -8 -8 -9 -9 -9 -10 -10 -10 -10 -9 -9 -8 -8 -7 -6 -6 -5 -3 -2 -1 1 1 2 2 1 1 1 -0 -1 -3 -4 -4 -4 -5
Height
1506 1511 1512 1505 1502 1500 1499 1496 1491 1479 1472 1473 1470 1469 1465 1463 1464 1464 1465 1467 1472 1477 1478 1472 1476 1484 1490 1495 1500 1503 1506 1509 1512 1515 1518 1521 1523 1526 1529 1532 1534 1537 1539 1541
1511 1513 1503 1500 1496 1496 1492 1494 1493 1481 1472 1474 1469 1467 1463 1462 1461 1461 1461 1465 1468 1474 1476 1478 1477 1484 1490 1496 1499 1502 1505 1508 1511 1514 1517 1521 1523 1525 1527 1530 1532 1534 1536 1539
1515 1507 1501 1499 1497 1498 1495 1491 1492 1491 1478 1470 1470 1471 1466 1466 1463 1464 1464 1465 1471 1470 1474 1477 1476 1481 1490 1495 1500 1502 1503 1507 1510 1513 1516 1519 1521 1523 1523 1525 1528 1530 1533 1536
1512 1503 1504 1501 1497 1498 1498 1486 1486 1486 1487 1490 1476 1487 1470 1468 1465 1465 1464 1464 1463 1464 1473 1477 1475 1478 1482 1488 1499 1501 1502 1505 1508 1511 1513 1515 1516 1517 1519 1522 1525 1527 1529 1532
1512 1507 1506 1505 1499 1497 1495 1486 1486 1482 1484 1488 1482 1493 1480 1468 1469 1467 1465 1466 1467 1468 1474 1476 1479 1480 1487 1490 1490 1491 1499 1502 1504 1506 1508 1510 1512 1514 1517 1519 1521 1523 1525 1528
1512 1507 1506 1504 1498 1495 1491 1487 1488 1490 1493 1502 1491 1497 1489 1479 1471 1469 1467 1465 1465 1473 1479 1480 1482 1482 1485 1485 1487 1489 1493 1497 1501 1501 1501 1503 1506 1509 1511 1514 1515 1518 1520 1523
1517 1509 1505 1503 1501 1496 1497 1502 1517 1514 1515 1509 1496 1500 1487 1479 1475 1474 1470 1467 1467 1469 1469 1473 1476 1478 1481 1482 1485 1489 1489 1491 1494 1496 1499 1500 1502 1502 1506 1509 1510 1512 1514 1516
1538 1531 1509 1506 1507 1509 1507 1509 1528 1514 1518 1515 1497 1492 1488 1478 1474 1473 1471 1469 1468 1468 1470 1471 1473 1475 1478 1478 1483 1485 1486 1488 1490 1493 1495 1497 1497 1499 1502 1503 1504 1506 1508 1510
1533 1524 1510 1507 1507 1507 1506 1516 1510 1515 1515 1520 1509 1492 1482 1478 1475 1474 1473 1473 1471 1469 1467 1468 1471 1472 1474 1476 1479 1483 1484 1485 1487 1486 1488 1491 1492 1492 1494 1498 1501 1501 1502 1505
1526 1532 1512 1509 1507 1506 1506 1509 1516 1524 1518 1516 1514 1509 1502 1482 1477 1477 1475 1476 1477 1477 1476 1475 1473 1472 1471 1473 1475 1478 1478 1479 1480 1483 1484 1484 1485 1486 1487 1490 1494 1497 1499 1499
1525 1531 1522 1513 1513 1513 1513 1512 1515 1519 1525 1522 1530 1511 1486 1482 1479 1477 1478 1478 1478 1476 1474 1473 1472 1471 1470 1471 1474 1474 1473 1474 1476 1476 1478 1476 1476 1480 1481 1482 1485 1487 1492 1494
1524 1532 1535 1517 1513 1511 1508 1511 1518 1529 1525 1529 1531 1516 1481 1481 1481 1481 1479 1477 1474 1473 1471 1467 1466 1467 1468 1468 1468 1468 1468 1469 1469 1470 1470 1470 1471 1471 1474 1474 1476 1480 1482 1487
1524 1531 1539 1524 1516 1512 1510 1508 1511 1519 1526 1527 1530 1509 1482 1481 1478 1477 1477 1475 1471 1468 1467 1465 1465 1466 1467 1467 1466 1464 1464 1464 1460 1462 1462 1463 1462 1464 1465 1465 1469 1470 1473 1476
1521 1528 1527 1534 1518 1516 1517 1514 1511 1515 1529 1521 1510 1496 1485 1484 1483 1475 1472 1472 1469 1467 1465 1464 1464 1465 1464 1462 1460 1458 1457 1458 1457 1454 1453 1454 1456 1457 1458 1459 1461 1462 1464 1466
1523 1528 1524 1523 1517 1517 1514 1509 1511 1518 1510 1515 1493 1499 1490 1488 1482 1476 1472 1470 1469 1467 1466 1464 1463 1461 1459 1457 1456 1456 1454 1453 1451 1449 1449 1450 1451 1451 1451 1451 1453 1455 1456 1458
1521 1524 1519 1519 1515 1513 1507 1504 1501 1500 1503 1507 1501 1498 1497 1490 1481 1474 1470 1469 1468 1467 1466 1465 1463 1462 1459 1457 1454 1452 1450 1448 1446 1445 1445 1446 1446 1446 1447 1447 1448 1448 1450 1452
1522 1523 1526 1516 1510 1511 1506 1492 1490 1499 1503 1499 1504 1503 1497 1488 1482 1480 1476 1471 1471 1470 1469 1467 1464 1461 1458 1455 1452 1450 1448 1446 1445 1443 1441 1441 1442 1442 1441 1440 1440 1441 1442 1445
1515 1520 1524 1523 1516 1524 1492 1490 1490 1502 1510 1509 1508 1505 1502 1497 1488 1483 1477 1478 1476 1474 1470 1466 1463 1460 1457 1455 1451 1448 1446 1444 1442 1440 1437 1436 1435 1435 1435 1435 1435 1435 1437 1439
1506 1514 1519 1516 1519 1503 1488 1495 1501 1495 1516 1516 1512 1508 1503 1494 1483 1479 1476 1478 1478 1475 1471 1467 1463 1459 1455 1452 1449 1446 1443 1440 1437 1435 1433 1431 1430 1428 1428 1429 1429 1431 1431 1433
1503 1507 1513 1518 1513 1503 1512 1503 1496 1491 1504 1515 1515 1511 1505 1497 1493 1483 1478 1475 1469 1467 1465 1462 1459 1455 1452 1449 1444 1440 1437 1434 1431 1428 1428 1426 1424 1423 1422 1423 1424 1425 1427 1430
1511 1515 1514 1511 1505 1502 1517 1508 1495 1496 1513 1514 1514 1510 1507 1505 1504 1491 1479 1473 1471 1466 1459 1455 1451 1447 1445 1441 1438 1433 1431 1428 1424 1423 1421 1419 1418 1417 1418 1418 1419 1421 1422 1426
1505 1513 1514 1514 1511 1508 1514 1506 1512 1528 1521 1519 1514 1510 1503 1500 1493 1488 1481 1473 1464 1457 1451 1449 1442 1437 1433 1431 1428 1425 1422 1421 1416 1415 1413 1412 1412 1411 1411 1412 1414 1416 1419 1423
1514 1519 1517 1517 1515 1524 1521 1524 1529 1526 1522 1517 1513 1508 1502 1494 1488 1482 1473 1466 1460 1455 1448 1441 1433 1426 1423 1421 1419 1414 1411 1410 1408 1407 1406 1406 1405 1405 1405 1406 1409 1410 1413 1418
1520 1521 1518 1520 1523 1522 1521 1523 1524 1522 1517 1514 1511 1504 1498 1491 1484 1476 1468 1461 1453 1446 1438 1432 1426 1419 1412 1410 1408 1405 1402 1399 1398 1397 1397 1398 1398 1399 1399 1400 1402 1407 1408 1410
1527 1524 1527 1521 1519 1514 1513 1516 1516 1513 1511 1508 1506 1501 1495 1487 1480 1473 1465 1457 1449 1440 1433 1426 1417 1409 1401 1399 1396 1395 1392 1391 1389 1388 1388 1390 1391 1391 1393 1394 1395 1399 1404 1408
1528 1530 1531 1529 1528 1528 1524 1519 1514 1509 1504 1500 1494 1489 1485 1481 1475 1468 1461 1453 1444 1435 1426 1417 1409 1401 1393 1390 1386 1383 1384 1382 1381 1380 1380 1381 1382 1383 1386 1388 1393 1397 1401 1406
Wind_Speed
5 6 4 8 4 6 5 3 6 6 4 7 4 5 5 12 11 12 13 15 19 29 6 13 33 30 26 21 20 23 26 26 28 28 27 25 24 22 20 21 20 20 20 20
6 3 5 7 3 5 3 3 6 9 7 3 3 7 3 8 7 16 13 14 19 16 22 13 25 26 20 18 18 21 24 26 27 28 27 24 22 21 20 20 20 21 21 21
3 5 8 4 4 7 5 2 4 5 9 1 5 4 4 5 3 9 12 11 19 20 18 25 22 18 6 16 20 16 22 27 26 26 25 24 23 22 23 23 22 22 22 22
5 4 5 8 3 2 4 3 3 7 6 3 5 2 3 4 4 5 12 15 19 17 23 24 23 20 14 13 11 23 19 24 26 26 26 26 26 26 26 22 21 22 23 24
5 7 7 5 6 3 8 10 5 2 2 2 9 5 7 5 7 5 3 12 19 23 32 33 32 28 25 21 13 20 27 24 26 28 28 27 28 26 25 23 23 24 24 25
6 5 1 3 8 3 9 5 5 5 3 4 6 4 5 2 2 0 1 6 17 20 26 24 25 26 21 8 15 26 31 31 30 30 30 29 30 30 30 27 28 27 26 26
7 5 5 3 6 6 10 7 4 6 5 3 6 4 5 6 5 4 3 9 8 8 13 18 24 26 25 24 16 14 31 30 32 33 33 33 32 30 31 31 30 29 29 30
3 8 6 6 2 3 4 3 3 2 3 5 6 4 4 4 4 4 5 6 6 6 4 13 18 19 26 27 28 30 26 33 30 34 37 36 33 34 34 33 32 31 31 30
4 6 5 2 2 2 6 5 1 1 2 2 4 5 5 2 2 4 6 6 5 4 6 6 11 19 22 28 30 31 34 34 33 37 36 37 36 36 36 35 36 34 32 31
1 5 2 5 2 1 2 2 4 3 4 4 5 5 4 4 5 4 6 10 12 9 8 9 8 9 16 23 27 28 28 32 30 31 33 35 35 35 35 36 39 38 35 33
1 2 7 4 5 4 5 3 4 3 3 1 4 6 6 4 6 5 6 11 15 17 18 16 13 9 7 11 18 23 27 33 35 35 34 35 33 34 33 34 37 40 40 39
0 3 4 8 5 4 1 1 3 4 5 1 3 6 2 2 5 3 10 16 22 14 16 19 15 13 12 13 14 16 19 25 30 34 35 37 35 35 37 36 35 37 39 42
2 1 4 9 5 3 3 1 3 2 2 5 3 5 1 9 16 26 21 22 20 16 13 10 9 13 15 18 18 17 18 21 24 30 35 36 39 39 40 33 35 37 40 41
4 4 8 6 8 1 5 4 4 3 2 4 9 13 18 18 15 24 26 25 13 11 10 11 9 9 10 11 14 17 19 20 21 23 26 30 34 38 41 39 39 37 39 39
4 5 3 6 9 4 10 14 8 9 9 6 8 9 15 17 18 27 29 23 8 5 6 8 11 13 14 14 13 13 15 16 17 17 19 23 28 30 34 38 40 41 43 42
2 4 3 3 9 10 14 12 13 12 6 9 13 16 6 23 23 23 25 11 6 3 5 9 12 14 15 16 17 17 18 18 18 18 19 20 24 28 30 33 37 38 41 44
4 4 2 6 1 4 8 3 2 8 8 3 4 6 18 16 22 24 29 22 13 10 13 16 18 19 21 20 19 20 20 20 20 19 21 19 22 27 29 30 32 37 40 42
5 6 4 4 3 2 6 4 3 14 10 12 9 13 16 21 26 16 31 34 32 30 30 27 24 24 24 25 25 23 22 23 24 24 23 22 23 25 29 33 36 38 40 43
13 5 3 3 4 5 4 6 4 6 7 13 15 16 22 34 26 6 33 38 34 33 31 28 26 25 24 26 27 26 25 25 27 29 26 25 25 26 29 33 36 39 40 40
4 2 3 2 3 4 4 14 26 12 4 17 21 19 24 29 11 11 42 43 44 43 41 38 33 29 26 26 27 27 28 28 29 29 27 26 26 26 26 30 35 38 39 40
3 2 6 6 5 1 9 19 20 4 7 26 22 20 21 11 14 34 45 44 41 40 42 41 39 37 34 31 29 29 31 31 31 30 29 27 28 25 25 27 34 37 38 39
1 2 3 1 3 6 25 6 5 8 18 20 24 27 27 28 32 32 34 37 43 47 50 48 46 44 40 36 35 35 37 35 36 34 32 29 29 27 27 29 32 36 37 39
4 2 2 2 1 7 16 16 11 13 17 22 25 26 28 30 34 36 36 37 38 38 40 42 44 44 41 38 38 39 35 33 34 37 35 31 29 30 30 31 34 38 40 43
3 15 2 4 2 13 10 16 15 18 19 20 20 22 23 27 30 34 34 36 38 39 40 39 39 40 41 36 38 39 29 27 30 33 37 34 31 31 32 31 35 40 44 46
2 6 5 4 7 17 7 30 30 28 24 24 22 21 22 25 27 29 33 34 36 37 38 38 39 43 43 40 36 35 29 27 29 32 36 38 34 34 34 35 38 41 44 44
5 2 1 3 9 6 15 23 24 27 29 29 32 34 31 32 32 32 34 34 36 37 35 36 37 37 40 36 38 32 27 25 26 31 36 40 38 36 35 36 34 35 39 36
Wind_Direction
358 36 337 297 271 246 256 270 318 297 292 3 305 279 240 205 192 187 203 194 206 214 215 214 182 185 185 194 201 207 204 198 198 199 201 201 203 207 208 208 212 212 212 208
13 310 282 293 355 330 356 357 325 303 297 325 281 264 263 174 203 193 185 185 178 170 155 155 165 173 183 199 206 209 211 206 203 207 208 211 212 215 215 212 211 213 214 213
219 264 323 5 341 1 317 275 307 268 312 301 333 351 35 239 284 203 199 184 187 168 170 165 165 159 192 208 211 221 215 214 212 209 211 212 216 217 215 214 215 214 217 216
257 301 344 334 314 41 302 225 289 303 16 320 21 304 21 351 273 207 227 203 185 187 185 181 176 181 202 223 241 229 224 219 220 217 215 216 219 220 224 224 222 218 219 219
278 334 347 332 303 329 258 316 290 291 347 8 345 71 300 20 25 45 197 229 226 212 198 187 190 190 191 197 252 221 224 222 220 221 224 223 226 230 234 229 224 223 222 221
255 295 264 266 308 282 296 4 35 34 32 34 319 83 311 336 330 138 12 14 233 222 209 209 204 202 206 188 221 242 216 226 226 224 222 225 228 229 229 228 228 226 225 225
332 326 313 345 344 357 14 28 1 8 9 244 333 27 248 314 348 357 3 10 9 236 233 228 228 232 230 220 211 245 228 231 230 231 232 231 231 233 233 232 232 230 227 226
37 331 355 343 110 274 327 72 117 358 340 290 332 359 303 304 356 34 60 50 34 25 265 240 242 244 234 233 228 223 233 235 237 237 237 237 236 237 236 234 233 234 234 232
9 290 315 267 315 87 319 41 200 113 294 4 300 311 315 318 51 97 94 76 60 16 346 305 261 249 245 239 241 234 233 240 250 247 244 241 241 240 242 240 239 236 236 234
281 302 268 298 339 333 116 246 23 15 21 332 317 301 243 289 289 319 314 337 343 332 315 300 280 263 253 250 249 246 247 247 244 245 246 247 246 243 240 240 242 242 239 235
191 137 292 353 30 311 345 24 43 112 127 113 325 276 225 219 297 244 329 350 332 317 309 298 283 284 268 259 252 251 248 243 246 248 249 250 248 247 248 247 247 241 241 236
258 159 281 267 278 251 198 100 94 100 296 97 162 272 302 200 64 20 336 321 329 317 316 306 272 275 280 288 283 276 267 256 252 252 255 254 249 251 246 250 248 247 242 239
184 289 320 331 358 348 74 250 131 127 92 206 163 259 54 317 329 315 308 319 324 322 322 328 317 295 292 281 280 288 287 274 268 258 253 254 256 250 248 251 255 252 245 239
171 200 195 207 242 191 288 224 228 185 207 216 230 272 290 299 300 305 311 324 320 327 325 323 320 318 315 308 301 302 301 293 282 267 261 253 252 257 253 249 250 251 252 244
153 232 221 244 267 251 262 274 248 201 221 213 272 254 296 308 300 299 301 309 317 3 16 19 9 5 2 1 352 334 318 309 299 286 271 261 263 258 258 257 252 249 250 247
179 256 292 250 245 264 279 263 256 254 223 240 261 292 338 321 339 326 320 305 299 359 9 4 2 359 355 352 350 348 347 338 311 292 285 276 270 264 261 260 255 253 250 243
188 187 85 283 291 298 297 285 135 73 36 283 47 349 336 344 345 5 10 356 324 338 346 345 339 338 338 332 328 329 329 330 325 308 287 278 273 268 264 261 256 250 244 239
203 149 171 263 33 238 239 297 90 105 61 27 17 357 347 341 332 34 26 10 4 357 354 350 344 337 331 327 320 312 310 311 311 306 291 274 271 267 263 256 249 243 242 236
200 152 220 220 203 293 323 24 4 314 71 19 7 356 351 346 339 298 349 345 337 334 336 337 335 326 322 323 322 312 302 300 303 301 296 281 267 265 260 253 248 243 237 231
116 155 165 141 223 255 8 324 318 294 162 19 3 350 345 351 351 315 327 327 323 322 320 318 319 316 314 310 309 302 297 292 293 296 297 285 271 264 258 254 247 239 233 228
19 36 215 243 271 308 338 322 320 235 339 342 345 336 337 325 295 300 313 315 312 309 304 303 303 301 297 300 306 304 304 297 296 292 287 283 271 263 255 250 243 235 227 214
82 341 237 194 237 261 358 17 53 341 325 333 331 325 322 316 312 310 309 309 309 309 308 307 305 300 297 286 288 291 294 294 297 286 278 277 268 257 251 246 237 228 217 202
297 310 290 360 48 24 60 73 12 347 331 327 322 319 316 312 311 313 312 311 308 305 304 307 306 304 301 298 295 297 291 291 290 284 271 271 262 254 249 245 234 218 208 200
63 19 40 331 103 350 105 22 8 348 333 327 325 321 322 317 319 317 318 318 315 312 309 307 302 299 297 297 293 296 298 292 283 278 268 262 257 249 244 238 230 219 207 202
324 352 333 280 2 354 192 354 348 345 348 346 346 343 338 334 329 328 324 323 327 322 318 312 305 302 301 291 293 296 295 285 278 274 265 255 253 248 241 234 228 219 212 205
8 32 349 261 8 322 306 329 338 348 352 353 351 351 354 349 340 339 337 336 337 334 333 325 314 305 296 297 292 292 290 287 277 268 260 253 248 244 238 227 214 211 208 196